STARLINK-11183 [DTC] (60189 NORAD) Tracking and Keplerian Element Data

This shows tracking and keplerian element data for the satellite.

Feedback or suggestion? Click here.




ElementValue
Catalog60189
NameSTARLINK-11183 [DTC]
Epoch Orbit1595
Epoch Day286.66669414
Epoch Year2024
RAAN170.5918
Inclination53.158
Eccentricity0.0001278
Argument of Perigee246.168
Mean Anonmoly113.9204
Mean Motion15.69707376
Decay Rate0.00033907
L11 60189U 24124G 24286.66669414 .00033907 00000+0 28361-3 0 9995
L22 60189 53.1580 170.5918 0001278 246.1680 113.9204 15.69707376 15955



Live tracking and technical data element details for STARLINK-11183 [DTC] (NORAD 60189). STARLINK-11183 [DTC] can be tracked NOW for your location showing map with azimuth and elevation plus other details from your city location.







IsCatalogInMostPopularTable: catalog: 60189, numindb: 14
Update: records affected: 1



GetName: 60189 STARLINK-11183 [DTC]

Hit Count: updated at: Thu, 23 Jan 2025 13:16:33 GMT